When you browse on this site, cookies collect data to enhance your experience and personalize the content and advertising you see.
Visit our Privacy Policy to learn more. By continuing to use the site, you agree to this use of cookies and data.
  • In Hungary
  • List of Countries
  • For 7 days
  • Water Temperature
  • Weather Map
  • News
  • Weather Widgets
  • user-avatar
    Login

    Hourly Weather Roza

    Today, 30 March, Monday

    Time Temperature Precipitation Wind Pressure Humidity
    00:00 -4°C° 0 mm 6 mps 748 mmHg 67%
    01:00 -5°C° 0 mm 5 mps 749 mmHg 64%
    02:00 -5°C° 0 mm 5 mps 749 mmHg 64%
    03:00 -5°C° 0 mm 5 mps 749 mmHg 64%
    04:00 -5°C° 0 mm 5 mps 749 mmHg 64%
    05:00 -5°C° 0 mm 5 mps 749 mmHg 60%
    06:00 -5°C° 0 mm 6 mps 749 mmHg 56%
    07:00 -4°C° 0 mm 6 mps 750 mmHg 51%
    08:00 -2°C° 0 mm 5 mps 750 mmHg 47%
    09:00 -1°C° 0 mm 5 mps 749 mmHg 43%
    10:00 0°C° 0 mm 5 mps 749 mmHg 38%
    11:00 0°C° 0 mm 5 mps 749 mmHg 39%
    12:00 +1°C° 0 mm 5 mps 749 mmHg 39%
    13:00 +2°C° 0 mm 5 mps 749 mmHg 39%
    14:00 +2°C° 0 mm 5 mps 748 mmHg 38%
    15:00 +3°C° 0 mm 4 mps 748 mmHg 36%
    16:00 +3°C° 0 mm 4 mps 748 mmHg 35%
    17:00 +2°C° 0 mm 3 mps 748 mmHg 41%
    18:00 +1°C° 0 mm 3 mps 748 mmHg 48%
    19:00 -1°C° 0 mm 2 mps 748 mmHg 54%
    20:00 -1°C° 0 mm 2 mps 748 mmHg 57%
    21:00 -1°C° 0 mm 2 mps 748 mmHg 59%
    22:00 -1°C° 0 mm 2 mps 748 mmHg 61%
    23:00 -2°C° 0 mm 2 mps 748 mmHg 61%

    Tomorrow, 31 March, Tuesday

    Time Temperature Precipitation Wind Pressure Humidity
    00:00 -2°C° 0 mm 2 mps 749 mmHg 61%
    01:00 -2°C° 0 mm 2 mps 749 mmHg 61%
    02:00 -2°C° 0 mm 2 mps 749 mmHg 62%
    03:00 0°C° 0 mm 1 mps 749 mmHg 62%
    04:00 0°C° 0 mm 1 mps 749 mmHg 62%
    05:00 -2°C° 0 mm 2 mps 749 mmHg 64%
    06:00 -1°C° 0 mm 2 mps 750 mmHg 66%
    07:00 -1°C° 0 mm 2 mps 750 mmHg 68%
    08:00 +1°C° 0.1 mm 2 mps 750 mmHg 67%
    09:00 +1°C° 0.1 mm 2 mps 750 mmHg 67%
    10:00 +2°C° 0.1 mm 2 mps 750 mmHg 67%
    11:00 +2°C° 0.2 mm 3 mps 750 mmHg 65%
    12:00 +2°C° 0.2 mm 3 mps 750 mmHg 62%
    13:00 +3°C° 0.2 mm 3 mps 750 mmHg 59%
    14:00 +3°C° 0.1 mm 4 mps 750 mmHg 55%
    15:00 +3°C° 0.1 mm 4 mps 750 mmHg 50%
    16:00 +3°C° 0.1 mm 4 mps 749 mmHg 46%
    17:00 0°C° 0 mm 4 mps 750 mmHg 58%
    18:00 0°C° 0 mm 3 mps 750 mmHg 71%
    19:00 -2°C° 0 mm 3 mps 750 mmHg 83%
    20:00 -2°C° 0 mm 3 mps 750 mmHg 84%
    21:00 -2°C° 0 mm 3 mps 750 mmHg 84%
    22:00 -4°C° 0 mm 3 mps 750 mmHg 85%
    23:00 -4°C° 0 mm 3 mps 750 mmHg 82%

    Day after tomorrow, 1 April, Wednesday

    Time Temperature Precipitation Wind Pressure Humidity
    00:00 -4°C° 0 mm 3 mps 750 mmHg 80%
    01:00 -4°C° 0 mm 3 mps 750 mmHg 78%
    02:00 -4°C° 0 mm 3 mps 749 mmHg 76%
    03:00 -4°C° 0 mm 3 mps 749 mmHg 75%
    04:00 -4°C° 0 mm 4 mps 748 mmHg 73%
    05:00 -3°C° 0 mm 4 mps 748 mmHg 72%
    06:00 -4°C° 0 mm 5 mps 748 mmHg 70%
    07:00 -2°C° 0 mm 5 mps 748 mmHg 69%
    08:00 -2°C° 0 mm 6 mps 748 mmHg 62%
    09:00 +1°C° 0 mm 6 mps 747 mmHg 55%
    10:00 +2°C° 0 mm 7 mps 747 mmHg 49%
    11:00 +3°C° 0 mm 7 mps 746 mmHg 47%
    12:00 +4°C° 0 mm 7 mps 746 mmHg 45%
    13:00 +4°C° 0 mm 7 mps 746 mmHg 44%
    14:00 +4°C° 0 mm 6 mps 745 mmHg 45%
    15:00 +4°C° 0 mm 6 mps 744 mmHg 47%
    16:00 +4°C° 0 mm 6 mps 744 mmHg 48%
    17:00 +3°C° 0 mm 5 mps 744 mmHg 53%
    18:00 +2°C° 0 mm 5 mps 743 mmHg 58%
    19:00 0°C° 0 mm 4 mps 743 mmHg 63%
    20:00 0°C° 0 mm 4 mps 743 mmHg 65%
    21:00 -1°C° 0 mm 4 mps 743 mmHg 66%
    22:00 -1°C° 0 mm 4 mps 743 mmHg 68%
    23:00 -1°C° 0 mm 4 mps 742 mmHg 70%

    2 April, Thursday

    Time Temperature Precipitation Wind Pressure Humidity
    00:00 -1°C° 0 mm 4 mps 742 mmHg 73%
    01:00 -2°C° 0 mm 4 mps 742 mmHg 75%
    02:00 -2°C° 0 mm 4 mps 742 mmHg 77%
    03:00 -2°C° 0 mm 4 mps 741 mmHg 78%
    04:00 -2°C° 0 mm 5 mps 741 mmHg 80%
    05:00 -1°C° 0 mm 5 mps 741 mmHg 78%
    06:00 0°C° 0 mm 5 mps 741 mmHg 76%
    07:00 -1°C° 0 mm 6 mps 741 mmHg 75%
    08:00 +2°C° 0 mm 6 mps 741 mmHg 69%
    09:00 +3°C° 0 mm 6 mps 741 mmHg 63%
    10:00 +4°C° 0 mm 6 mps 741 mmHg 57%
    11:00 +5°C° 0 mm 6 mps 741 mmHg 57%
    12:00 +5°C° 0 mm 6 mps 741 mmHg 56%
    13:00 +5°C° 0 mm 6 mps 740 mmHg 56%
    14:00 +5°C° 0 mm 6 mps 740 mmHg 56%
    15:00 +5°C° 0 mm 6 mps 739 mmHg 56%
    16:00 +7°C° 0 mm 6 mps 739 mmHg 56%
    17:00 +6°C° 0 mm 5 mps 739 mmHg 59%
    18:00 +5°C° 0 mm 4 mps 738 mmHg 62%
    19:00 +4°C° 0 mm 3 mps 738 mmHg 66%
    20:00 +3°C° 0 mm 3 mps 738 mmHg 69%
    21:00 +3°C° 0 mm 3 mps 737 mmHg 72%
    22:00 +2°C° 0 mm 3 mps 737 mmHg 75%
    23:00 +1°C° 0 mm 4 mps 736 mmHg 75%

    3 April, Friday

    Time Temperature Precipitation Wind Pressure Humidity
    00:00 +1°C° 0 mm 4 mps 736 mmHg 74%
    01:00 +1°C° 0 mm 5 mps 736 mmHg 74%
    02:00 +1°C° 0 mm 5 mps 735 mmHg 73%
    03:00 +1°C° 0 mm 6 mps 735 mmHg 72%
    04:00 +1°C° 0 mm 6 mps 734 mmHg 71%
    05:00 +2°C° 0 mm 7 mps 735 mmHg 71%
    06:00 +1°C° 0 mm 8 mps 735 mmHg 71%
    07:00 +2°C° 0 mm 8 mps 735 mmHg 71%
    08:00 +2°C° 0.1 mm 8 mps 736 mmHg 70%
    09:00 +2°C° 0.1 mm 8 mps 736 mmHg 69%
    10:00 +2°C° 0.1 mm 9 mps 737 mmHg 68%
    11:00 +3°C° 0.1 mm 9 mps 737 mmHg 60%
    12:00 +5°C° 0.1 mm 9 mps 738 mmHg 52%
    13:00 +6°C° 0.1 mm 9 mps 738 mmHg 45%
    14:00 +6°C° 0.2 mm 9 mps 739 mmHg 46%
    15:00 +5°C° 0.2 mm 9 mps 739 mmHg 47%
    16:00 +5°C° 0.2 mm 9 mps 739 mmHg 48%
    17:00 +4°C° 0.1 mm 7 mps 740 mmHg 52%
    18:00 +3°C° 0.1 mm 6 mps 741 mmHg 57%
    19:00 +2°C° 0.1 mm 5 mps 742 mmHg 61%
    20:00 +1°C° 0 mm 4 mps 743 mmHg 64%
    21:00 +1°C° 0 mm 4 mps 743 mmHg 66%
    22:00 0°C° 0 mm 4 mps 744 mmHg 68%
    23:00 0°C° 0 mm 4 mps 745 mmHg 70%

    4 April, Saturday

    Time Temperature Precipitation Wind Pressure Humidity
    00:00 -1°C° 0 mm 4 mps 745 mmHg 72%
    01:00 -1°C° 0 mm 4 mps 746 mmHg 74%
    02:00 -2°C° 0 mm 4 mps 747 mmHg 77%
    03:00 -1°C° 0 mm 3 mps 747 mmHg 79%
    04:00 -2°C° 0 mm 3 mps 748 mmHg 82%
    05:00 -1°C° 0 mm 3 mps 749 mmHg 79%
    06:00 -1°C° 0 mm 4 mps 749 mmHg 76%
    07:00 -1°C° 0 mm 4 mps 750 mmHg 73%
    08:00 +1°C° 0 mm 5 mps 750 mmHg 65%
    09:00 +3°C° 0 mm 5 mps 751 mmHg 58%
    10:00 +5°C° 0 mm 5 mps 751 mmHg 50%
    11:00 +6°C° 0 mm 5 mps 751 mmHg 48%
    12:00 +6°C° 0 mm 5 mps 752 mmHg 45%
    13:00 +7°C° 0 mm 5 mps 752 mmHg 42%
    14:00 +6°C° 0 mm 5 mps 752 mmHg 44%
    15:00 +6°C° 0 mm 4 mps 752 mmHg 46%
    16:00 +6°C° 0 mm 4 mps 752 mmHg 49%
    17:00 +5°C° 0 mm 3 mps 753 mmHg 54%
    18:00 +4°C° 0 mm 3 mps 753 mmHg 59%
    19:00 +4°C° 0 mm 2 mps 753 mmHg 63%
    20:00 +4°C° 0 mm 1 mps 754 mmHg 66%
    21:00 +3°C° 0 mm 1 mps 755 mmHg 68%
    22:00 +3°C° 0 mm 1 mps 755 mmHg 70%
    23:00 +3°C° 0 mm 1 mps 755 mmHg 72%
    Show more